Location: North Smoke Tower Site
(30.5430°N, 82.3390°W)
Time: 14:56:13
(UTC-05:00)

Cosmos 1980 Rocket - Visible Passes

Search period start: 01 March 2017 00:00
Search period end: 11 March 2017 00:00
Orbit: 829 x 850 km, 71.0° (Epoch: 28 February)

Date Brightness Start Highest point End Pass type
(mag) Time Alt. Az. Time Alt. Az. Time Alt. Az.
01 Mar 2.7 06:23:34 10° S 06:29:04 65° ESE 06:34:38 10° NNE visible
02 Mar 2.9 06:07:56 10° S 06:13:24 60° ESE 06:18:56 10° NNE visible
03 Mar 3.0 05:52:20 10° S 05:57:46 55° ESE 06:03:14 10° NNE visible
04 Mar 3.1 05:36:43 10° S 05:42:07 51° ESE 05:47:32 10° NNE visible
05 Mar 3.2 05:21:08 10° S 05:26:27 47° ESE 05:31:49 10° NNE visible
06 Mar 3.3 05:05:33 10° S 05:10:48 44° ESE 05:16:06 10° NE visible
07 Mar 3.4 04:49:58 10° S 04:55:09 40° ESE 05:00:22 10° NE visible
08 Mar 3.5 04:34:52 12° SSE 04:39:30 37° ESE 04:44:38 10° NE visible
08 Mar 3.3 06:19:10 10° WSW 06:23:32 23° WNW 06:27:56 10° N visible
09 Mar 3.6 04:21:15 23° SSE 04:23:51 35° ESE 04:28:53 10° NE visible
09 Mar 3.2 06:03:19 10° WSW 06:07:49 25° WNW 06:12:22 10° N visible
10 Mar 3.6 04:07:13 30° ESE 04:08:12 32° ESE 04:13:09 10° NE visible
10 Mar 3.2 05:49:03 17° WSW 05:52:07 26° WNW 05:56:49 10° N visible
